Location: Piotrkow Trybunalski
(51.4000°N, 19.6830°E)
Time: 12:27:44
(UTC+02:00)

A-11 Canister half - Pass Details

Date: 05 February 2023
Orbit: 1526 x 1682 km, 47.3° (Epoch: 26 March)

Event Time Altitude Azimuth Distance (km) Brightness Sun altitude
Rises 07:13:04 0° 255° (WSW) 4,673 11.1 -0.9°
Reaches altitude 10° 07:16:06 10° 253° (WSW) 3,694 10.6 -0.5°
Maximum altitude 07:25:18 69° 173° (S) 1,635 9.4 0.8°
Drops below altitude 10° 07:34:42 10° 93° (E) 3,770 12.4 2.1°
Sets 07:37:50 0° 91° (E) 4,775 12.8 2.5°
